User: anonymous   Login
Location: Unspecified
(0.0000°N, 0.0000°E)
Time: 02:35:37
(UTC+00:00)
Language:

FORMOSAT 3B - Orbit

View from above orbital plane
View from above orbital plane
View from above satellite
View from above satellite

Ground track
Ground track

The orbit data is extracted from the following two-line orbital elements,

1 29048U 06011B   18322.53370685  .00000074  00000-0  45473-4 0  9992
2 29048  71.9653 118.9943 0045602 292.6310  67.0007 14.28601441661410
Epoch (UTC): 18 November 2018 12:48:32
Eccentricity: 0.0045602
inclination: 71.9653°
perigee height: 763 km
apogee height: 829 km
right ascension of ascending node: 118.9943°
argument of perigee: 292.6310°
revolutions per day: 14.28601441
mean anomaly at epoch: 67.0007°
orbit number at epoch: 66141

The dashed part of the orbit path shows where the satellite is in the earth's shadow,  

DLR